Time,TemperatureF,DewpointF,PressureIn,WindDirection,WindDirectionDegrees,WindSpeedMPH,WindSpeedGustMPH,Humidity,HourlyPrecipIn,Conditions,Clouds,dailyrainin,SolarRadiationWatts/m^2,SoftwareType,DateUTC
2013-02-04 00:01:00,13.0,9.0,-100.00,WSW,253,1.0,6.0,85,0.00,,,0.09,0.000000,,2013-02-04 05:01:00,
2013-02-04 00:22:00,13.0,9.0,-100.00,WSW,253,1.0,6.0,85,0.00,,,0.09,0.000000,,2013-02-04 05:22:00,
2013-02-04 00:33:00,13.0,9.0,-100.00,WSW,253,1.0,6.0,85,0.00,,,0.09,0.000000,,2013-02-04 05:33:00,
2013-02-04 00:42:00,13.0,9.0,-100.00,WSW,253,1.0,6.0,85,0.00,,,0.09,0.000000,,2013-02-04 05:42:00,
2013-02-04 00:52:00,13.0,9.0,-100.00,WSW,253,1.0,6.0,85,0.00,,,0.09,0.000000,,2013-02-04 05:52:00,
2013-02-04 01:01:00,13.0,9.0,-100.00,SW,231,0.0,3.0,84,0.00,,,0.09,0.000000,,2013-02-04 06:01:00,
2013-02-04 01:21:00,13.0,9.0,-100.00,SW,231,0.0,3.0,84,0.00,,,0.09,0.000000,,2013-02-04 06:21:00,
2013-02-04 01:32:00,13.0,9.0,-100.00,SW,231,0.0,3.0,84,0.00,,,0.09,0.000000,,2013-02-04 06:32:00,
2013-02-04 01:42:00,13.0,9.0,-100.00,SW,231,0.0,3.0,84,0.00,,,0.09,0.000000,,2013-02-04 06:42:00,
2013-02-04 01:52:00,13.0,9.0,-100.00,SW,231,0.0,3.0,84,0.00,,,0.09,0.000000,,2013-02-04 06:52:00,
2013-02-04 02:01:00,9.0,5.0,-100.00,SW,215,0.0,2.0,83,0.00,,,0.09,0.000000,,2013-02-04 07:01:00,
2013-02-04 02:32:00,9.0,5.0,-100.00,SW,215,0.0,2.0,83,0.00,,,0.09,0.000000,,2013-02-04 07:32:00,
2013-02-04 02:42:00,9.0,5.0,-100.00,SW,215,0.0,2.0,83,0.00,,,0.09,0.000000,,2013-02-04 07:42:00,
2013-02-04 02:52:00,9.0,5.0,-100.00,SW,215,0.0,2.0,83,0.00,,,0.09,0.000000,,2013-02-04 07:52:00,
2013-02-04 03:01:00,6.0,2.0,-100.00,SW,214,0.0,0.0,83,0.00,,,0.09,0.000000,,2013-02-04 08:01:00,
2013-02-04 03:32:00,6.0,2.0,-100.00,SW,214,0.0,0.0,83,0.00,,,0.09,0.000000,,2013-02-04 08:32:00,
2013-02-04 03:42:00,6.0,2.0,-100.00,SW,214,0.0,0.0,83,0.00,,,0.09,0.000000,,2013-02-04 08:42:00,
2013-02-04 03:52:00,6.0,2.0,-100.00,SW,214,0.0,0.0,83,0.00,,,0.09,0.000000,,2013-02-04 08:52:00,
2013-02-04 04:01:00,4.0,0.0,-100.00,SW,215,0.0,0.0,82,0.00,,,0.09,0.000000,,2013-02-04 09:01:00,
2013-02-04 04:32:00,4.0,0.0,-100.00,SW,215,0.0,0.0,82,0.00,,,0.09,0.000000,,2013-02-04 09:32:00,
2013-02-04 04:42:00,4.0,0.0,-100.00,SW,215,0.0,0.0,82,0.00,,,0.09,0.000000,,2013-02-04 09:42:00,
2013-02-04 04:52:00,4.0,0.0,-100.00,SW,215,0.0,0.0,82,0.00,,,0.09,0.000000,,2013-02-04 09:52:00,
2013-02-04 05:01:00,4.0,0.0,-100.00,NW,320,0.0,2.0,83,0.00,,,0.09,0.000000,,2013-02-04 10:01:00,
2013-02-04 05:32:00,4.0,0.0,-100.00,NW,320,0.0,2.0,83,0.00,,,0.09,0.000000,,2013-02-04 10:32:00,
2013-02-04 05:42:00,4.0,0.0,-100.00,NW,320,0.0,2.0,83,0.00,,,0.09,0.000000,,2013-02-04 10:42:00,
2013-02-04 05:52:00,4.0,0.0,-100.00,NW,320,0.0,2.0,83,0.00,,,0.09,0.000000,,2013-02-04 10:52:00,
2013-02-04 06:01:00,4.0,0.0,-100.00,SW,223,0.0,2.0,83,0.00,,,0.09,0.000000,,2013-02-04 11:01:00,
2013-02-04 06:33:00,4.0,0.0,-100.00,SW,223,0.0,2.0,83,0.00,,,0.09,0.000000,,2013-02-04 11:33:00,
2013-02-04 06:42:00,4.0,0.0,-100.00,SW,223,0.0,2.0,83,0.00,,,0.09,0.000000,,2013-02-04 11:42:00,
2013-02-04 06:52:00,4.0,0.0,-100.00,SW,223,0.0,2.0,83,0.00,,,0.09,0.000000,,2013-02-04 11:52:00,
2013-02-04 07:01:00,9.0,6.0,-100.00,WSW,248,0.0,4.0,86,0.00,,,0.09,0.000000,,2013-02-04 12:01:00,
2013-02-04 07:22:00,9.0,6.0,-100.00,WSW,248,0.0,4.0,86,0.00,,,0.09,0.000000,,2013-02-04 12:22:00,
2013-02-04 07:33:00,9.0,6.0,-100.00,WSW,248,0.0,4.0,86,0.00,,,0.09,0.000000,,2013-02-04 12:33:00,
2013-02-04 07:42:00,9.0,6.0,-100.00,WSW,248,0.0,4.0,86,0.00,,,0.09,0.000000,,2013-02-04 12:42:00,
2013-02-04 07:53:00,9.0,6.0,-100.00,WSW,248,0.0,4.0,86,0.00,,,0.09,0.000000,,2013-02-04 12:53:00,
2013-02-04 08:01:00,14.0,10.0,-100.00,West,265,2.0,11.0,84,0.00,,,-99.99,5.000000,,2013-02-04 13:01:00,
2013-02-04 08:22:00,14.0,10.0,-100.00,West,265,2.0,11.0,84,0.00,,,-99.99,5.000000,,2013-02-04 13:22:00,
2013-02-04 08:33:00,14.0,10.0,-100.00,West,265,2.0,11.0,84,0.00,,,-99.99,5.000000,,2013-02-04 13:33:00,
2013-02-04 08:42:00,14.0,10.0,-100.00,West,265,2.0,11.0,84,0.00,,,-99.99,5.000000,,2013-02-04 13:42:00,
2013-02-04 08:52:00,14.0,10.0,-100.00,West,265,2.0,11.0,84,0.00,,,-99.99,5.000000,,2013-02-04 13:52:00,
2013-02-04 09:01:00,16.0,11.0,-100.00,WSW,237,3.0,10.0,79,0.00,,,0.09,32.000000,,2013-02-04 14:01:00,
2013-02-04 09:33:00,16.0,11.0,-100.00,WSW,237,3.0,10.0,79,0.00,,,0.09,32.000000,,2013-02-04 14:33:00,
2013-02-04 09:42:00,16.0,11.0,-100.00,WSW,237,3.0,10.0,79,0.00,,,0.09,32.000000,,2013-02-04 14:42:00,
2013-02-04 09:53:00,16.0,11.0,-100.00,WSW,237,3.0,10.0,79,0.00,,,0.09,32.000000,,2013-02-04 14:53:00,
2013-02-04 10:01:00,17.0,9.0,-100.00,WSW,258,2.0,9.0,71,0.00,,,0.09,48.000000,,2013-02-04 15:01:00,
2013-02-04 10:33:00,17.0,9.0,-100.00,WSW,258,2.0,9.0,71,0.00,,,0.09,48.000000,,2013-02-04 15:33:00,
2013-02-04 10:43:00,17.0,9.0,-100.00,WSW,258,2.0,9.0,71,0.00,,,0.09,48.000000,,2013-02-04 15:43:00,
2013-02-04 10:53:00,17.0,9.0,-100.00,WSW,258,2.0,9.0,71,0.00,,,0.09,48.000000,,2013-02-04 15:53:00,
2013-02-04 13:01:00,20.0,6.0,-100.00,West,259,3.0,10.0,54,-99.99,,,0.01,97.000000,,2013-02-04 18:01:00,
2013-02-04 13:33:00,20.0,6.0,-100.00,West,259,3.0,10.0,54,-99.99,,,0.01,97.000000,,2013-02-04 18:33:00,
2013-02-04 13:42:00,20.0,6.0,-100.00,West,259,3.0,10.0,54,-99.99,,,0.01,97.000000,,2013-02-04 18:42:00,
2013-02-04 13:52:00,20.0,6.0,-100.00,West,259,3.0,10.0,54,-99.99,,,0.01,97.000000,,2013-02-04 18:52:00,
2013-02-04 14:01:00,23.0,2.0,-100.00,West,272,2.0,9.0,39,0.00,,,0.00,166.000000,,2013-02-04 19:01:00,
2013-02-04 14:22:00,23.0,2.0,-100.00,West,272,2.0,9.0,39,0.00,,,0.00,166.000000,,2013-02-04 19:22:00,
2013-02-04 14:32:00,23.0,2.0,-100.00,West,272,2.0,9.0,39,0.00,,,0.00,166.000000,,2013-02-04 19:32:00,
2013-02-04 15:01:00,19.0,-2.0,-100.00,WSW,257,2.0,13.0,39,0.01,,,-99.99,137.000000,,2013-02-04 20:01:00,
2013-02-04 15:22:00,19.0,-2.0,-100.00,WSW,257,2.0,13.0,39,0.01,,,-99.99,137.000000,,2013-02-04 20:22:00,
2013-02-04 15:32:00,19.0,-2.0,-100.00,WSW,257,2.0,13.0,39,0.01,,,-99.99,137.000000,,2013-02-04 20:32:00,
2013-02-04 15:42:00,19.0,-2.0,-100.00,WSW,257,2.0,13.0,39,0.01,,,-99.99,137.000000,,2013-02-04 20:42:00,
2013-02-04 15:52:00,19.0,-2.0,-100.00,WSW,257,2.0,13.0,39,0.01,,,-99.99,137.000000,,2013-02-04 20:52:00,
2013-02-04 16:01:00,15.0,-5.0,-100.00,West,272,2.0,9.0,40,0.00,,,0.01,22.000000,,2013-02-04 21:01:00,
2013-02-04 16:32:00,15.0,-5.0,-100.00,West,272,2.0,9.0,40,0.00,,,0.01,22.000000,,2013-02-04 21:32:00,
2013-02-04 16:43:00,15.0,-5.0,-100.00,West,272,2.0,9.0,40,0.00,,,0.01,22.000000,,2013-02-04 21:43:00,
2013-02-04 16:52:00,15.0,-5.0,-100.00,West,272,2.0,9.0,40,0.00,,,0.01,22.000000,,2013-02-04 21:52:00,
2013-02-04 17:01:00,12.0,-6.0,-100.00,WNW,288,1.0,8.0,44,0.00,,,0.01,10.000000,,2013-02-04 22:01:00,
2013-02-04 17:33:00,12.0,-6.0,-100.00,WNW,288,1.0,8.0,44,0.00,,,0.01,10.000000,,2013-02-04 22:33:00,
2013-02-04 17:42:00,12.0,-6.0,-100.00,WNW,288,1.0,8.0,44,0.00,,,0.01,10.000000,,2013-02-04 22:42:00,
2013-02-04 17:52:00,12.0,-6.0,-100.00,WNW,288,1.0,8.0,44,0.00,,,0.01,10.000000,,2013-02-04 22:52:00,
2013-02-04 18:01:00,8.0,-7.0,-100.00,SSW,202,0.0,4.0,49,0.00,,,0.01,1.000000,,2013-02-04 23:01:00,
2013-02-04 18:32:00,8.0,-7.0,-100.00,SSW,202,0.0,4.0,49,0.00,,,0.01,1.000000,,2013-02-04 23:32:00,
2013-02-04 18:42:00,8.0,-7.0,-100.00,SSW,202,0.0,4.0,49,0.00,,,0.01,1.000000,,2013-02-04 23:42:00,
2013-02-04 18:52:00,8.0,-7.0,-100.00,SSW,202,0.0,4.0,49,0.00,,,0.01,1.000000,,2013-02-04 23:52:00,
2013-02-04 19:01:00,3.0,-8.0,-100.00,ESE,119,0.0,2.0,60,0.00,,,0.01,0.000000,,2013-02-05 00:01:00,
2013-02-04 19:32:00,3.0,-8.0,-100.00,ESE,119,0.0,2.0,60,0.00,,,0.01,0.000000,,2013-02-05 00:32:00,
2013-02-04 19:42:00,3.0,-8.0,-100.00,ESE,119,0.0,2.0,60,0.00,,,0.01,0.000000,,2013-02-05 00:42:00,
2013-02-04 19:52:00,3.0,-8.0,-100.00,ESE,119,0.0,2.0,60,0.00,,,0.01,0.000000,,2013-02-05 00:52:00,
2013-02-04 20:33:00,-1.0,-8.0,-100.00,ESE,112,0.0,0.0,72,0.00,,,0.01,0.000000,,2013-02-05 01:33:00,
2013-02-04 21:01:00,-3.0,-9.0,-100.00,South,170,0.0,0.0,76,0.00,,,0.01,0.000000,,2013-02-05 02:01:00,
2013-02-04 21:32:00,-3.0,-9.0,-100.00,South,170,0.0,0.0,76,0.00,,,0.01,0.000000,,2013-02-05 02:32:00,
2013-02-04 21:42:00,-3.0,-9.0,-100.00,South,170,0.0,0.0,76,0.00,,,0.01,0.000000,,2013-02-05 02:42:00,
2013-02-04 21:52:00,-3.0,-9.0,-100.00,South,170,0.0,0.0,76,0.00,,,0.01,0.000000,,2013-02-05 02:52:00,
2013-02-04 22:01:00,-5.0,-10.0,-100.00,South,169,0.0,0.0,77,0.00,,,0.01,0.000000,,2013-02-05 03:01:00,
2013-02-04 22:32:00,-5.0,-10.0,-100.00,South,169,0.0,0.0,77,0.00,,,0.01,0.000000,,2013-02-05 03:32:00,
2013-02-04 22:42:00,-5.0,-10.0,-100.00,South,169,0.0,0.0,77,0.00,,,0.01,0.000000,,2013-02-05 03:42:00,
2013-02-04 22:52:00,-5.0,-10.0,-100.00,South,169,0.0,0.0,77,0.00,,,0.01,0.000000,,2013-02-05 03:52:00,
2013-02-04 23:01:00,-7.0,-13.0,-100.00,South,186,0.0,1.0,73,0.00,,,0.01,0.000000,,2013-02-05 04:01:00,
2013-02-04 23:32:00,-7.0,-13.0,-100.00,South,186,0.0,1.0,73,0.00,,,0.01,0.000000,,2013-02-05 04:32:00,
2013-02-04 23:42:00,-7.0,-13.0,-100.00,South,186,0.0,1.0,73,0.00,,,0.01,0.000000,,2013-02-05 04:42:00,
2013-02-04 23:52:00,-7.0,-13.0,-100.00,South,186,0.0,1.0,73,0.00,,,0.01,0.000000,,2013-02-05 04:52:00,